Simultaneous Nadir Overpasses (SNOs) Predictions

Prediction of SNOs between GOES-14 and AQUA Satellite Orbit:

Table of predicted SNOs for the next 14.0 days since TLE Epoch: 7/1/2023
Index Date Time (GOES-14) GOES-14 Lat,Lon AQUA Lat,Lon Distance(km) Time Diff (sec)
1 07/01/2023 08:51:53 -0.14,-108.67 -0.87,-105.19 396.27 80
2 07/01/2023 21:10:06 0.18,-108.57 -0.18,-110.25 190.94 80
3 07/03/2023 20:58:35 0.17,-108.56 0.56,-106.79 201.68 80
4 07/04/2023 09:16:40 -0.20,-108.67 0.47,-111.82 358.95 80
5 07/06/2023 09:05:08 -0.20,-108.66 -0.24,-108.36 33.92 80
6 07/08/2023 08:50:56 -0.19,-108.65 -0.97,-104.89 427.23 80
7 07/08/2023 21:09:10 0.22,-108.54 -0.05,-109.96 160.79 80
8 07/10/2023 20:57:37 0.22,-108.54 0.65,-106.49 233.16 80
9 07/11/2023 09:15:42 -0.24,-108.65 0.35,-111.52 326.18 80
10 07/13/2023 09:04:09 -0.24,-108.65 -0.38,-108.05 67.53 80
